Murray, KY

10:43 PM CST on November 19, 2019 (GMT -0600)
Kyle-Oakley

Weather History for KCEY - September, 2019

Change the Weather History Date:

Wednesday, September 25, 2019

  Actual Average (WUND) Record (WUND)
Temperature  
Mean Temperature 70 °F -  
Max Temperature 80 °F - - (-1)
Min Temperature 59 °F - - (-1)
Cooling Degree Days 4    
Growing Degree Days 20 (Base 50)    
Moisture  
Dew Point 62 °F    
Average Humidity 78    
Maximum Humidity 100    
Minimum Humidity 39    
Precipitation  
Precipitation 0.00 in - - ()
Sea Level Pressure  
Sea Level Pressure 29.89 in    
Wind  
Wind Speed 4 mph (South)    
Max Wind Speed 15 mph    
Max Gust Speed 22 mph    
Visibility 10 miles    
Events      
Averages and records for this station are not official NWS values.
T = Trace of Precipitation, MM = Missing Value Source: NWS Daily Summary

Daily Weather History Graph

Daily Weather History Graph

Search for Another Location

Airport or City:

Astronomy

Sep. 25, 2019 Rise Set
Actual Time 6:43 AM CDT 6:46 PM CDT
Civil Twilight 6:17 AM CDT 7:11 PM CDT
Nautical Twilight 5:47 AM CDT 7:41 PM CDT
Astronomical Twilight 5:17 AM CDT 8:12 PM CDT
Moon 2:45 AM CDT (9/25) 5:10 PM CDT (9/25)
Length of Visible Light 12h 54m
Length of Day
12h 02m
Waning Crescent, 14% of the Moon is Illuminated
Sep 25
Waning Crescent
Sep 28
New
Oct 5
First Quarter
Oct 13
Full
Oct 21
Last Quarter

Hourly Weather History & Observations

Time (CDT) Temp. Heat Index Dew Point Humidity Pressure Visibility Wind Dir Wind Speed Gust Speed Precip Events Conditions
12:15 AM 59.0 °F - 57.2 °F 94% 29.90 in 10.0 mi SE 3.5 mph - N/A   Clear
12:35 AM 62.6 °F - 57.2 °F 82% 29.90 in 10.0 mi Calm Calm - N/A   Clear
12:55 AM 62.6 °F - 57.2 °F 82% 29.89 in 10.0 mi Calm Calm - N/A   Clear
1:15 AM 62.6 °F - 57.2 °F 82% 29.89 in 10.0 mi ESE 3.5 mph - N/A   Clear
1:35 AM 62.6 °F - 57.2 °F 82% 29.88 in 10.0 mi SSE 4.6 mph - N/A   Clear
1:55 AM 62.6 °F - 55.4 °F 77% 29.89 in 10.0 mi Calm Calm - N/A   Unknown
2:15 AM 62.6 °F - 57.2 °F 82% 29.89 in 10.0 mi Calm Calm - N/A   Unknown
2:35 AM 62.6 °F - 57.2 °F 82% 29.89 in 10.0 mi Calm Calm - N/A   Clear
2:55 AM 62.6 °F - 57.2 °F 82% 29.89 in 10.0 mi Calm Calm - N/A   Unknown
3:15 AM 62.6 °F - 59.0 °F 88% 29.88 in 10.0 mi ESE 3.5 mph - N/A   Unknown
3:35 AM 62.6 °F - 59.0 °F 88% 29.88 in 10.0 mi ESE 3.5 mph - N/A   Unknown
3:55 AM 62.6 °F - 59.0 °F 88% 29.88 in 10.0 mi SE 3.5 mph - N/A   Unknown
4:15 AM 62.6 °F - 57.2 °F 82% 29.88 in 10.0 mi Calm Calm - N/A   Unknown
4:35 AM 62.6 °F - 55.4 °F 77% 29.88 in 10.0 mi SSE 5.8 mph - N/A   Unknown
4:55 AM 64.4 °F - 55.4 °F 73% 29.89 in 10.0 mi SSE 4.6 mph - N/A   Unknown
5:15 AM 64.4 °F - 57.2 °F 77% 29.89 in 10.0 mi SE 5.8 mph - N/A   Unknown
5:35 AM 64.4 °F - 55.4 °F 73% 29.90 in 10.0 mi SSE 6.9 mph - N/A   Overcast
5:55 AM 64.4 °F - 53.6 °F 68% 29.90 in 10.0 mi SSE 6.9 mph - N/A   Scattered Clouds
6:15 AM 64.4 °F - 53.6 °F 68% 29.91 in 10.0 mi SSE 4.6 mph - N/A   Unknown
6:35 AM 64.4 °F - 53.6 °F 68% 29.92 in 10.0 mi SSE 5.8 mph - N/A   Mostly Cloudy
6:55 AM 64.4 °F - 53.6 °F 68% 29.92 in 10.0 mi SE 4.6 mph - N/A   Mostly Cloudy
7:15 AM 64.4 °F - 53.6 °F 68% 29.92 in 10.0 mi SE 4.6 mph - N/A   Partly Cloudy
7:35 AM 64.4 °F - 53.6 °F 68% 29.92 in 10.0 mi SE 4.6 mph - N/A   Partly Cloudy
7:55 AM 66.2 °F - 53.6 °F 64% 29.91 in 10.0 mi SE 6.9 mph - N/A   Clear
8:15 AM 68.0 °F - 51.8 °F 56% 29.91 in 10.0 mi SSE 5.8 mph - N/A   Clear
8:35 AM 68.0 °F - 53.6 °F 60% 29.90 in 10.0 mi SSE 5.8 mph - N/A   Clear
8:55 AM 69.8 °F - 53.6 °F 56% 29.90 in 10.0 mi SE 3.5 mph - N/A   Scattered Clouds
9:15 AM 73.4 °F - 53.6 °F 50% 29.91 in 10.0 mi South 4.6 mph - N/A   Mostly Cloudy
9:35 AM 77.0 °F - 51.8 °F 41% 29.91 in 10.0 mi SSW 8.1 mph - N/A   Scattered Clouds
9:55 AM 77.0 °F - 51.8 °F 41% 29.92 in 10.0 mi SSW 9.2 mph - N/A   Overcast
10:15 AM 80.6 °F 80.3 °F 53.6 °F 39% 29.91 in 10.0 mi South 9.2 mph - N/A   Mostly Cloudy
10:35 AM 78.8 °F - 55.4 °F 44% 29.92 in 10.0 mi SSW 9.2 mph - N/A   Clear
10:55 AM 78.8 °F - 55.4 °F 44% 29.91 in 10.0 mi SW 9.2 mph - N/A   Mostly Cloudy
11:15 AM 77.0 °F - 55.4 °F 47% 29.91 in 10.0 mi SSW 4.6 mph - N/A   Scattered Clouds
11:35 AM 77.0 °F - 57.2 °F 50% 29.90 in 10.0 mi Calm Calm - N/A   Partly Cloudy
11:55 AM 80.6 °F 81.1 °F 59.0 °F 48% 29.89 in 10.0 mi SW 10.4 mph - N/A   Clear
12:15 PM 80.6 °F 81.1 °F 59.0 °F 48% 29.88 in 10.0 mi SW 15.0 mph - N/A   Clear
12:35 PM 78.8 °F - 59.0 °F 51% 29.89 in 10.0 mi SSW 10.4 mph 16.1 mph N/A   Clear
12:55 PM 78.8 °F - 62.6 °F 57% 29.89 in 10.0 mi SSW 9.2 mph - N/A   Clear
1:15 PM 78.8 °F - 62.6 °F 57% 29.89 in 10.0 mi WSW 11.5 mph - N/A   Clear
1:35 PM 77.0 °F - 64.4 °F 65% 29.90 in 10.0 mi WSW 13.8 mph - N/A   Clear
1:55 PM 75.2 °F - 64.4 °F 69% 29.89 in 10.0 mi WSW 10.4 mph - N/A   Clear
2:15 PM 75.2 °F - 68.0 °F 78% 29.88 in 10.0 mi WSW 6.9 mph - N/A   Clear
2:35 PM 73.4 °F - 69.8 °F 88% 29.88 in 10.0 mi SW 9.2 mph - N/A   Clear
2:55 PM 73.4 °F - 69.8 °F 88% 29.87 in 10.0 mi SW 10.4 mph - N/A   Clear
3:15 PM 73.4 °F - 71.6 °F 94% 29.86 in 10.0 mi SW 11.5 mph - N/A   Partly Cloudy
3:35 PM 73.4 °F - 71.6 °F 94% 29.86 in 10.0 mi WSW 8.1 mph - N/A   Clear
3:55 PM 73.4 °F - 71.6 °F 94% 29.87 in 10.0 mi SW 9.2 mph - N/A   Clear
4:15 PM 75.2 °F - 71.6 °F 89% 29.87 in 10.0 mi SSW 10.4 mph - N/A   Clear
4:35 PM 78.8 °F - 69.8 °F 74% 29.86 in 10.0 mi SW 5.8 mph - N/A   Clear
4:55 PM 80.6 °F 83.9 °F 69.8 °F 70% 29.86 in 10.0 mi SW 12.7 mph 21.9 mph N/A   Clear
5:15 PM 80.6 °F 84.6 °F 71.6 °F 74% 29.86 in 10.0 mi SSW 10.4 mph - N/A   Clear
5:35 PM 77.0 °F - 71.6 °F 83% 29.86 in 10.0 mi SSW 5.8 mph - N/A   Clear
5:55 PM 75.2 °F - 71.6 °F 89% 29.86 in 10.0 mi South 5.8 mph - N/A   Clear
6:15 PM 75.2 °F - 71.6 °F 89% 29.86 in 10.0 mi Calm Calm - N/A   Clear
6:35 PM 73.4 °F - 73.4 °F 100% 29.86 in 10.0 mi South 3.5 mph - N/A   Clear
6:55 PM 73.4 °F - 73.4 °F 100% 29.85 in 10.0 mi SSE 5.8 mph - N/A   Clear
7:15 PM 71.6 °F - 71.6 °F 100% 29.86 in 10.0 mi South 3.5 mph - N/A   Clear
7:35 PM 71.6 °F - 71.6 °F 100% 29.86 in 10.0 mi SSE 5.8 mph - N/A   Scattered Clouds
7:55 PM 71.6 °F - 71.6 °F 100% 29.87 in 10.0 mi SE 4.6 mph - N/A   Mostly Cloudy
8:15 PM 71.6 °F - 71.6 °F 100% 29.88 in 10.0 mi SSE 3.5 mph - N/A   Partly Cloudy
8:35 PM 71.6 °F - 71.6 °F 100% 29.89 in 10.0 mi Calm Calm - N/A   Clear
8:55 PM 71.6 °F - 71.6 °F 100% 29.89 in 10.0 mi SSE 3.5 mph - N/A   Clear
9:15 PM 71.6 °F - 71.6 °F 100% 29.89 in 10.0 mi Calm Calm - N/A   Clear
9:35 PM 71.6 °F - 71.6 °F 100% 29.90 in 10.0 mi Calm Calm - N/A   Clear
9:55 PM 69.8 °F - 69.8 °F 100% 29.91 in 10.0 mi Calm Calm - N/A   Clear
10:15 PM 69.8 °F - 69.8 °F 100% 29.90 in 10.0 mi Calm Calm - N/A   Clear
10:35 PM 68.0 °F - 68.0 °F 100% 29.90 in 10.0 mi Calm Calm - N/A   Clear
10:55 PM 68.0 °F - 68.0 °F 100% 29.89 in 9.0 mi South 3.5 mph - N/A   Clear
11:15 PM 68.0 °F - 68.0 °F 100% 29.89 in 7.0 mi Calm Calm - N/A   Clear
11:35 PM 66.2 °F - 66.2 °F 100% 29.89 in 7.0 mi Calm Calm - N/A   Clear
11:55 PM 66.2 °F - 66.2 °F 100% 29.88 in 1.5 mi SSE 4.6 mph - N/A   Clear